Find Starlink 35580

NORAD ID: 66155 Int'l Des: 2025-240 Owner: SPXS Country: US Constellation: starlink operational
LEOCIRCULAR

当前视图

正在加载3D地球...

About Starlink 35580

Starlink 35580 (NORAD 66155) is a starlink constellation satellite (v2 mini) launched Oct 25, 2025 by SPXS of US. It operates in LEO, CIRCULAR orbit with a mass of 575.00 kg.

即将过境

Passes for default location (London). Set your location on the main map for personalized predictions.

高度历史

Loading altitude history...

两行轨道根数

1 66155U 25240K 26264.90035010 .00016701 00000-0 50437-3 0 9991
2 66155 53.1579 226.8556 0001984 127.5180 232.6003 15.34396332 52096
Epoch: Sep 21, 2026 • Age: 7 hours

当前状态

高度 482.3 km
远地点 / 近地点 N/A
速度 7.62 km/s
星下点 -53.30°S, 60.51°E
发射日期 Oct 25, 2025
运行时间 0.9 years
类型 internet

技术详情

分类 Payload
质量 575.00 kg
干质量 530.00 kg
长度 0.30 m
跨度 29.00 m
形状 ? Box + pan
制造商 SPXS
平台类型 Starlink V2MO
阶段状态 In Orbit
所有者/国家 SPXS/US

Most Searched